Torna al catalogo

FENGYUN 1C DEB

AttivoPO
NORAD 30872·DEBRIS·🇨🇳 China

Lanciato May 10, 1999 da Taiyuan Satellite Launch Center

Loading…

Prossimi Passaggi (prossime 24 ore)

TLE

AggiornatoSource: Space-Track

Epoca: Sep 14, 2026, 04:35 UTC

1 30872U 99025AXJ 26257.19156714  .00001479  00000-0  47321-3 0  9992
2 30872  99.1650 334.2132 0040777 300.1089  86.9018 14.40784017 16865

Traccia FENGYUN 1C DEB in tempo reale con AllMySat

Download on the App Store